Location: UBC Liquid-Mirror Observatory
(49.2876°N, 122.5728°W)
Time: 08:11:45
(UTC-08:00)

KITSAT 1 - Visible Passes

Search period start: 26 November 2014 00:00
Search period end: 06 December 2014 00:00
Orbit: 1315 x 1315 km, 66.1° (Epoch: 24 November)

Date Brightness Start Highest point End Pass type
(mag) Time Alt. Az. Time Alt. Az. Time Alt. Az.
26 Nov 12.1 04:03:04 10° SSE 04:09:18 26° ESE 04:15:33 10° NE visible
26 Nov 10.2 05:55:41 10° SW 06:03:47 87° NW 06:11:55 10° NE visible
27 Nov 11.5 04:17:52 10° S 04:25:00 36° ESE 04:32:09 10° NE visible
27 Nov 10.2 06:11:55 10° SW 06:19:58 68° NW 06:28:03 10° NE visible
28 Nov 10.9 04:33:08 10° S 04:40:49 51° ESE 04:48:32 10° NE visible
28 Nov 10.4 06:28:25 10° WSW 06:36:17 53° NW 06:44:11 10° NE visible
29 Nov 12.4 02:58:12 10° SE 03:02:48 17° E 03:07:25 10° ENE visible
29 Nov 10.4 04:48:46 10° SSW 04:56:45 70° ESE 05:04:47 10° NE visible
29 Nov 10.6 06:45:07 10° WSW 06:52:42 42° NW 07:00:20 10° NE visible
30 Nov 11.9 03:13:42 15° SSE 03:18:22 25° ESE 03:24:32 10° NE visible
30 Nov 10.1 05:05:50 15° SW 05:12:48 89° NW 05:20:57 10° NE visible
30 Nov 10.9 07:02:00 10° W 07:09:15 35° NNW 07:16:33 10° NE visible
01 Dec 11.4 03:31:08 28° SSE 03:34:03 35° ESE 03:41:10 10° NE visible
01 Dec 10.1 05:23:13 21° SW 05:28:59 69° NW 05:37:05 10° NE visible
02 Dec 10.8 03:48:04 43° SSE 03:49:52 50° ESE 03:57:33 10° NE visible
02 Dec 10.3 05:40:08 23° WSW 05:45:17 54° NW 05:53:13 10° NE visible
03 Dec 12.3 02:12:41 16° E 02:12:41 16° E 02:16:20 10° ENE visible
03 Dec 10.4 04:04:43 62° SSE 04:05:47 68° ESE 04:13:48 10° NE visible
03 Dec 10.6 05:56:46 22° W 06:01:43 43° NW 06:09:22 10° NE visible
04 Dec 12.0 02:29:08 22° E 02:29:08 22° E 02:33:30 10° NE visible
04 Dec 10.1 04:21:10 78° SSW 04:21:50 89° SE 04:29:59 10° NE visible
04 Dec 10.8 06:13:11 19° W 06:18:15 35° NNW 06:25:34 10° NE visible
05 Dec 11.7 02:45:26 29° E 02:45:26 29° E 02:50:10 10° NE visible
05 Dec 10.0 04:37:27 68° WNW 04:38:00 71° NW 04:46:07 10° NE visible
05 Dec 11.1 06:29:28 15° WNW 06:34:54 30° NNW 06:41:51 10° NE visible
